Hourly Weather São Paulo

Today, 26 September, Saturday

Time Temperature Precipitation Wind Pressure Humidity
00:00 +22°C° 0 mm 1 mps 699 mmHg 77%
01:00 +21°C° 0 mm 1 mps 698 mmHg 77%
02:00 +21°C° 0 mm 1 mps 698 mmHg 78%
03:00 +21°C° 0 mm 1 mps 698 mmHg 78%
04:00 +21°C° 0 mm 1 mps 698 mmHg 80%
05:00 +21°C° 0 mm 1 mps 698 mmHg 81%
06:00 +20°C° 0 mm 1 mps 698 mmHg 83%
07:00 +22°C° 0 mm 1 mps 699 mmHg 73%
08:00 +25°C° 0 mm 1 mps 700 mmHg 64%
09:00 +27°C° 0 mm 1 mps 700 mmHg 54%
10:00 +29°C° 0 mm 2 mps 700 mmHg 45%
11:00 +31°C° 0 mm 2 mps 700 mmHg 36%
12:00 +34°C° 0 mm 3 mps 700 mmHg 28%
13:00 +34°C° 0 mm 3 mps 699 mmHg 27%
14:00 +34°C° 0 mm 3 mps 698 mmHg 26%
15:00 +34°C° 0 mm 3 mps 698 mmHg 26%
16:00 +33°C° 0 mm 3 mps 697 mmHg 29%
17:00 +31°C° 0 mm 2 mps 697 mmHg 32%
18:00 +29°C° 0 mm 1 mps 697 mmHg 35%
19:00 +29°C° 0 mm 1 mps 697 mmHg 36%
20:00 +28°C° 0 mm 1 mps 697 mmHg 37%
21:00 +27°C° 0 mm 1 mps 697 mmHg 38%
22:00 +27°C° 0 mm 1 mps 697 mmHg 38%
23:00 +26°C° 0 mm 1 mps 697 mmHg 39%

Tomorrow, 27 September, Sunday

Time Temperature Precipitation Wind Pressure Humidity
00:00 +25°C° 0 mm 1 mps 697 mmHg 39%
01:00 +25°C° 0 mm 1 mps 696 mmHg 40%
02:00 +24°C° 0 mm 1 mps 696 mmHg 41%
03:00 +24°C° 0 mm 1 mps 695 mmHg 41%
04:00 +24°C° 0 mm 1 mps 696 mmHg 42%
05:00 +23°C° 0 mm 1 mps 696 mmHg 43%
06:00 +23°C° 0 mm 1 mps 696 mmHg 43%
07:00 +25°C° 0 mm 2 mps 697 mmHg 38%
08:00 +28°C° 0 mm 2 mps 697 mmHg 34%
09:00 +30°C° 0 mm 3 mps 698 mmHg 29%
10:00 +33°C° 0 mm 3 mps 698 mmHg 25%
11:00 +35°C° 0 mm 4 mps 698 mmHg 22%
12:00 +37°C° 0 mm 4 mps 698 mmHg 18%
13:00 +37°C° 0 mm 4 mps 698 mmHg 18%
14:00 +37°C° 0 mm 4 mps 697 mmHg 18%
15:00 +37°C° 0 mm 4 mps 696 mmHg 18%
16:00 +36°C° 0 mm 3 mps 696 mmHg 20%
17:00 +35°C° 0 mm 3 mps 696 mmHg 22%
18:00 +32°C° 0 mm 2 mps 696 mmHg 24%
19:00 +31°C° 0 mm 2 mps 696 mmHg 25%
20:00 +31°C° 0 mm 1 mps 696 mmHg 27%
21:00 +30°C° 0 mm 1 mps 696 mmHg 28%
22:00 +29°C° 0 mm 1 mps 696 mmHg 30%
23:00 +28°C° 0 mm 1 mps 696 mmHg 32%

Day after tomorrow, 28 September, Monday

Time Temperature Precipitation Wind Pressure Humidity
00:00 +27°C° 0 mm 1 mps 696 mmHg 34%
01:00 +27°C° 0 mm 1 mps 695 mmHg 36%
02:00 +26°C° 0 mm 2 mps 695 mmHg 37%
03:00 +26°C° 0 mm 2 mps 694 mmHg 39%
04:00 +25°C° 0 mm 2 mps 694 mmHg 39%
05:00 +25°C° 0 mm 2 mps 695 mmHg 39%
06:00 +25°C° 0 mm 2 mps 695 mmHg 40%
07:00 +27°C° 0 mm 3 mps 695 mmHg 34%
08:00 +30°C° 0 mm 3 mps 696 mmHg 29%
09:00 +33°C° 0 mm 4 mps 697 mmHg 23%
10:00 +35°C° 0 mm 5 mps 697 mmHg 21%
11:00 +38°C° 0 mm 6 mps 697 mmHg 18%
12:00 +39°C° 0 mm 6 mps 697 mmHg 16%
13:00 +39°C° 0 mm 6 mps 697 mmHg 16%
14:00 +40°C° 0 mm 5 mps 696 mmHg 17%
15:00 +40°C° 0 mm 5 mps 696 mmHg 17%
16:00 +37°C° 0 mm 4 mps 696 mmHg 23%
17:00 +35°C° 0 mm 3 mps 696 mmHg 29%
18:00 +32°C° 0 mm 2 mps 696 mmHg 34%
19:00 +29°C° 0 mm 3 mps 697 mmHg 45%
20:00 +27°C° 0 mm 4 mps 697 mmHg 55%
21:00 +25°C° 0 mm 5 mps 698 mmHg 65%
22:00 +23°C° 0 mm 4 mps 698 mmHg 71%
23:00 +22°C° 0 mm 4 mps 698 mmHg 77%

29 September, Tuesday

Time Temperature Precipitation Wind Pressure Humidity
00:00 +21°C° 0 mm 4 mps 699 mmHg 82%
01:00 +21°C° 0 mm 4 mps 698 mmHg 82%
02:00 +21°C° 0 mm 4 mps 698 mmHg 82%
03:00 +21°C° 0 mm 4 mps 698 mmHg 81%
04:00 +21°C° 0 mm 4 mps 698 mmHg 81%
05:00 +21°C° 0 mm 4 mps 699 mmHg 81%
06:00 +20°C° 0 mm 4 mps 699 mmHg 81%
07:00 +21°C° 0 mm 4 mps 699 mmHg 77%
08:00 +22°C° 0 mm 4 mps 700 mmHg 73%
09:00 +23°C° 0 mm 4 mps 700 mmHg 69%
10:00 +25°C° 0 mm 4 mps 700 mmHg 64%
11:00 +27°C° 0 mm 4 mps 700 mmHg 59%
12:00 +28°C° 0 mm 4 mps 700 mmHg 53%
13:00 +28°C° 0 mm 4 mps 700 mmHg 54%
14:00 +28°C° 0 mm 4 mps 699 mmHg 55%
15:00 +28°C° 0 mm 4 mps 699 mmHg 56%
16:00 +26°C° 0 mm 4 mps 698 mmHg 62%
17:00 +23°C° 0 mm 4 mps 698 mmHg 68%
18:00 +22°C° 0 mm 3 mps 698 mmHg 74%
19:00 +21°C° 0 mm 3 mps 698 mmHg 76%
20:00 +21°C° 0 mm 3 mps 699 mmHg 78%
21:00 +20°C° 0 mm 2 mps 699 mmHg 80%
22:00 +20°C° 0 mm 2 mps 699 mmHg 82%
23:00 +20°C° 0 mm 2 mps 699 mmHg 83%

30 September, Wednesday

Time Temperature Precipitation Wind Pressure Humidity
00:00 +20°C° 0 mm 2 mps 699 mmHg 84%
01:00 +20°C° 0 mm 2 mps 698 mmHg 84%
02:00 +20°C° 0 mm 2 mps 698 mmHg 84%
03:00 +20°C° 0 mm 2 mps 697 mmHg 85%
04:00 +21°C° 0 mm 1 mps 697 mmHg 83%
05:00 +21°C° 0 mm 1 mps 698 mmHg 82%
06:00 +21°C° 0 mm 1 mps 698 mmHg 81%
07:00 +24°C° 0 mm 1 mps 698 mmHg 69%
08:00 +27°C° 0 mm 2 mps 699 mmHg 57%
09:00 +30°C° 0 mm 2 mps 699 mmHg 46%
10:00 +32°C° 0 mm 2 mps 699 mmHg 37%
11:00 +36°C° 0 mm 3 mps 699 mmHg 29%
12:00 +39°C° 0 mm 3 mps 699 mmHg 21%
13:00 +39°C° 0 mm 3 mps 699 mmHg 20%
14:00 +39°C° 0 mm 3 mps 698 mmHg 20%
15:00 +39°C° 0 mm 3 mps 698 mmHg 19%
16:00 +37°C° 0 mm 3 mps 698 mmHg 26%
17:00 +35°C° 0 mm 2 mps 698 mmHg 34%
18:00 +32°C° 0 mm 2 mps 697 mmHg 41%
19:00 +30°C° 0 mm 2 mps 698 mmHg 48%
20:00 +28°C° 0 mm 3 mps 698 mmHg 56%
21:00 +26°C° 0 mm 3 mps 698 mmHg 63%
22:00 +25°C° 0 mm 2 mps 698 mmHg 68%
23:00 +25°C° 0 mm 2 mps 698 mmHg 72%

1 October, Thursday

Time Temperature Precipitation Wind Pressure Humidity
00:00 +24°C° 0 mm 1 mps 698 mmHg 77%
01:00 +24°C° 0 mm 1 mps 697 mmHg 73%
02:00 +24°C° 0 mm 1 mps 697 mmHg 69%
03:00 +24°C° 0 mm 1 mps 697 mmHg 66%
04:00 +25°C° 0 mm 2 mps 697 mmHg 59%
05:00 +25°C° 0 mm 2 mps 697 mmHg 53%
06:00 +25°C° 0 mm 3 mps 697 mmHg 46%
07:00 +28°C° 0 mm 3 mps 697 mmHg 40%
08:00 +30°C° 0 mm 4 mps 698 mmHg 34%
09:00 +34°C° 0 mm 4 mps 699 mmHg 28%
10:00 +35°C° 0 mm 4 mps 699 mmHg 24%
11:00 +37°C° 0 mm 4 mps 699 mmHg 21%
12:00 +40°C° 0 mm 4 mps 699 mmHg 17%
13:00 +41°C° 0 mm 4 mps 698 mmHg 17%
14:00 +40°C° 0 mm 3 mps 697 mmHg 16%
15:00 +40°C° 0 mm 3 mps 697 mmHg 16%
16:00 +39°C° 0 mm 3 mps 697 mmHg 19%
17:00 +37°C° 0 mm 2 mps 697 mmHg 22%
18:00 +36°C° 0 mm 2 mps 697 mmHg 25%
19:00 +33°C° 0 mm 1 mps 697 mmHg 27%
20:00 +32°C° 0 mm 1 mps 697 mmHg 30%
21:00 +31°C° 0 mm 1 mps 698 mmHg 32%
22:00 +30°C° 0 mm 1 mps 698 mmHg 37%
23:00 +29°C° 0 mm 2 mps 698 mmHg 42%
Show more